Flag for Brazil Weather past 2 weeks in Cuiabá, Mato Grosso, Brazil

Now
77 °F

Passing clouds.


Feels Like: 79 °F
Forecast: 74 / 90 °F
Wind: 2 mph from South

Location: Cuiaba Aeroporto


UV Index: 5 (Moderate)

Visibility: N/A


Pressure: 29.86 "Hg

Humidity: 79%

Dew point: 70 °F

Location of CuiabáLocation

Historic Weather in Cuiabá

°F

Cuiabá temperature yesterday

Maximum temperature yesterday: 86 °F (at 10:00 AM)
Minimum temperature yesterday: 72 °F (at 6:00 AM)
Average temperature yesterday: 77 °F

Past Weeks' High & Low Weather Summary

 TemperatureHumidityPressure
High93 °F (Apr 5, 12:00 PM)100% (Apr 3, 7:00 PM)30.04 "Hg (Apr 3, 7:00 PM)
Low39 °F (Apr 3, 7:00 PM)41% (Apr 6, 4:00 PM)29.77 "Hg (Apr 7, 5:00 PM)
Average79 °F78%29.90 "Hg
* Reported Apr 3 7:00 PM — Apr 18 7:00 PM, Cuiabá, Weather by CustomWeather, © 2014

Note: Actual official high and low records may vary slightly from our data, if they occured in-between our weather recording intervals... More about our weather records

Advertising

Historic Weather Conditions — Data for Previous 24 hours

 ConditionsComfort  
Time TempWeatherWind HumidityBarometerVisibility
7:00 PM
Apr 18
79 °FPassing clouds.3 mph74%29.83 "HgN/A
6:00 PM79 °FPassing clouds.2 mph79%29.83 "HgN/A
5:00 PM81 °FScattered clouds.3 mph70%29.80 "HgN/A
4:00 PM82 °FScattered clouds.13 mph70%29.80 "HgN/A
3:00 PM88 °FScattered clouds.5 mph59%29.80 "HgN/A
2:00 PM88 °FScattered clouds.2 mph59%29.80 "HgN/A
1:00 PM88 °FScattered clouds.5 mph62%29.83 "HgN/A
12:00 PM88 °FScattered clouds.6 mph59%29.89 "HgN/A
11:00 AM86 °FScattered clouds.5 mph62%29.92 "HgN/A
10:00 AM84 °FScattered clouds.3 mph66%29.95 "HgN/A
9:00 AM84 °FSunny.2 mph66%29.95 "Hg10 mi
8:00 AM77 °FSunny.2 mph83%29.92 "Hg10 mi
7:00 AM77 °FScattered clouds.2 mph94%29.92 "HgN/A
6:00 AM73 °FFog.7 mph89%29.89 "HgN/A
5:00 AM73 °FFog.7 mph94%29.86 "HgN/A
4:00 AM73 °FPassing clouds.3 mph94%29.89 "HgN/A
3:00 AM72 °FClear.No wind94%29.89 "Hg10 mi
2:00 AM75 °FPassing clouds.3 mph83%29.89 "HgN/A
1:00 AM73 °FClear.No wind94%29.89 "Hg10 mi
12:00 AM73 °FClear.3 mph94%29.89 "Hg10 mi
11:00 PM
Apr 17
75 °FClear.2 mph89%29.89 "Hg10 mi
10:00 PM75 °FPassing clouds.5 mph89%29.92 "HgN/A
9:00 PM75 °FPassing clouds.6 mph89%29.92 "HgN/A
8:00 PM75 °FPassing clouds.3 mph89%29.89 "HgN/A
Weather by CustomWeather, © 2014

See weather overview